timestamp,surface_pressure_avg,surface_temp_avg,battery_voltage,lat,long
2021-04-25 00:09:01+00:00,300.053,3.4,13.13,47.84626,-54.09684
2021-04-25 00:19:01+00:00,290.7547,3.42,12.81,47.84626,-54.09684
2021-04-25 00:29:01+00:00,285.5497,3.42,12.81,47.84626,-54.09684
2021-04-25 00:39:01+00:00,274.9714,3.43,12.81,47.84626,-54.09684
2021-04-25 00:49:01+00:00,260.893,3.4,12.81,47.84626,-54.09684
2021-04-25 00:59:01+00:00,256.2747,3.41,12.81,47.84626,-54.09684
2021-04-25 01:09:01+00:00,252.0797,3.44,12.81,47.84626,-54.09684
2021-04-25 01:19:01+00:00,239.4165,3.43,12.65,47.84626,-54.09684
2021-04-25 01:29:01+00:00,229.6781,3.44,12.65,47.84626,-54.09684
2021-04-25 01:39:01+00:00,227.4698,3.45,12.65,47.84626,-54.09684
2021-04-25 01:49:01+00:00,220.8748,3.45,12.65,47.84626,-54.09684
2021-04-25 01:59:01+00:00,215.0231,3.42,12.65,47.84626,-54.09684
2021-04-25 02:09:01+00:00,215.3214,3.43,12.65,47.84626,-54.09684
2021-04-25 02:19:01+00:00,212.9414,3.43,12.65,47.84626,-54.09684
2021-04-25 02:29:01+00:00,205.4765,3.46,12.65,47.84626,-54.09684
2021-04-25 02:39:01+00:00,201.3848,3.49,12.65,47.84626,-54.09684
2021-04-25 02:49:01+00:00,199.8065,3.48,12.65,47.84626,-54.09684
2021-04-25 02:59:01+00:00,196.1514,3.49,12.65,47.84626,-54.09684
2021-04-25 03:09:01+00:00,191.9898,3.5,12.65,47.84626,-54.09684
2021-04-25 03:19:01+00:00,189.3582,3.5,12.65,47.84626,-54.09684
2021-04-25 03:29:01+00:00,186.3898,3.5,12.65,47.84626,-54.09684
2021-04-25 03:39:01+00:00,183.1865,3.5,12.65,47.84626,-54.09684
2021-04-25 03:49:01+00:00,180.7615,3.5,12.65,47.84626,-54.09684
2021-04-25 03:59:01+00:00,179.0481,3.5,12.65,47.84626,-54.09684
2021-04-25 04:09:01+00:00,177.7648,3.5,12.65,47.84626,-54.09684
2021-04-25 04:19:00+00:00,181.4598,3.5,12.65,47.84626,-54.09684
2021-04-25 04:29:00+00:00,184.0264,3.5,12.65,47.84626,-54.09684
2021-04-25 04:39:00+00:00,181.6998,3.5,12.65,47.84626,-54.09684
2021-04-25 04:49:00+00:00,183.9948,3.49,12.65,47.84626,-54.09684
2021-04-25 04:59:00+00:00,190.9015,3.49,12.65,47.84626,-54.09684
2021-04-25 05:09:00+00:00,195.243,3.48,12.65,47.84626,-54.09684
2021-04-25 05:19:01+00:00,194.7115,3.48,12.65,47.84626,-54.09684
2021-04-25 05:29:01+00:00,199.0931,3.48,12.65,47.84626,-54.09684
2021-04-25 05:39:01+00:00,205.8348,3.49,12.65,47.84626,-54.09684
2021-04-25 05:49:01+00:00,206.9131,3.5,12.65,47.84626,-54.09684
2021-04-25 05:59:01+00:00,208.6998,3.5,12.65,47.84626,-54.09684
2021-04-25 06:09:01+00:00,214.7298,3.6,12.65,47.84626,-54.09684
2021-04-25 06:19:00+00:00,219.8247,3.6,12.57,47.84626,-54.09684
2021-04-25 06:29:00+00:00,224.0031,3.58,12.57,47.84626,-54.09684
2021-04-25 06:39:00+00:00,228.4615,3.53,12.57,47.84626,-54.09684
2021-04-25 06:49:00+00:00,234.8981,3.5,12.57,47.84626,-54.09684
2021-04-25 06:59:00+00:00,241.4914,3.5,12.57,47.84626,-54.09684
2021-04-25 07:09:00+00:00,246.2064,3.5,12.57,47.84626,-54.09684
2021-04-25 07:19:00+00:00,252.5748,3.55,12.57,47.84626,-54.09684
2021-04-25 07:29:00+00:00,259.8781,3.58,12.57,47.84626,-54.09684
2021-04-25 07:39:00+00:00,269.5164,3.59,12.57,47.84626,-54.09684
2021-04-25 07:49:00+00:00,278.1114,3.6,12.57,47.84626,-54.09684
2021-04-25 07:59:00+00:00,288.238,3.6,12.57,47.84626,-54.09684
2021-04-25 08:09:00+00:00,297.0847,3.6,12.57,47.84626,-54.09684
2021-04-25 08:19:00+00:00,306.4714,3.54,12.49,47.84626,-54.09684
2021-04-25 08:29:00+00:00,315.2613,3.5,12.49,47.84626,-54.09684
2021-04-25 08:39:00+00:00,321.533,3.5,12.49,47.84626,-54.09684
2021-04-25 08:49:00+00:00,324.663,3.5,12.49,47.84626,-54.09684
2021-04-25 08:59:00+00:00,329.2614,3.5,12.49,47.84626,-54.09684
2021-04-25 09:09:00+00:00,335.7612,3.48,12.49,47.84626,-54.09684
2021-04-25 09:19:00+00:00,341.478,3.4,12.65,47.84626,-54.09684
2021-04-25 09:29:00+00:00,344.8296,3.4,12.65,47.84626,-54.09684
2021-04-25 09:39:00+00:00,347.1796,3.4,12.65,47.84626,-54.09684
2021-04-25 09:49:00+00:00,347.74300000000005,3.4,12.65,47.84626,-54.09684
2021-04-25 09:59:00+00:00,351.8296,3.4,12.65,47.84626,-54.09684
2021-04-25 10:09:00+00:00,355.0463,3.4,12.65,47.84626,-54.09684
2021-04-25 10:19:01+00:00,352.3679,3.4,13.53,47.84626,-54.09684
2021-04-25 10:29:01+00:00,350.9363,3.4,13.53,47.84626,-54.09684
2021-04-25 10:39:01+00:00,354.99300000000005,3.4,13.53,47.84626,-54.09684
2021-04-25 10:49:01+00:00,355.8513,3.4,13.53,47.84626,-54.09684
2021-04-25 10:59:01+00:00,350.2629,3.4,13.53,47.84626,-54.09684
2021-04-25 11:09:01+00:00,347.7229,3.4,13.53,47.84626,-54.09684
2021-04-25 11:19:01+00:00,349.7379,3.4,13.68,47.84626,-54.09684
2021-04-25 11:29:01+00:00,344.903,3.38,13.68,47.84626,-54.09684
2021-04-25 11:39:01+00:00,338.2764,3.3,13.68,47.84626,-54.09684
2021-04-25 11:49:01+00:00,336.4896,3.3,13.68,47.84626,-54.09684
2021-04-25 11:59:01+00:00,335.3613,3.3,13.68,47.84626,-54.09684
2021-04-25 12:09:01+00:00,325.4697,3.3,13.68,47.84626,-54.09684
2021-04-25 12:19:01+00:00,316.5912,3.3,14.64,47.84626,-54.09684
2021-04-25 12:29:01+00:00,315.4513,3.3,14.64,47.84626,-54.09684
2021-04-25 12:39:01+00:00,306.8513,3.3,14.64,47.84626,-54.09684
2021-04-25 12:49:01+00:00,292.2197,3.3,14.64,47.84626,-54.09684
2021-04-25 12:59:01+00:00,284.6031,3.3,14.64,47.84626,-54.09684
2021-04-25 13:09:01+00:00,281.1314,3.3,14.64,47.84626,-54.09684
2021-04-25 13:19:01+00:00,268.8665,3.3,14.64,47.84626,-54.09684
2021-04-25 13:29:01+00:00,255.2947,3.3,14.64,47.84626,-54.09684
2021-04-25 13:39:01+00:00,248.898,3.3,14.64,47.84626,-54.09684
2021-04-25 13:49:01+00:00,243.4964,3.3,14.64,47.84626,-54.09684
2021-04-25 13:59:01+00:00,234.3765,3.3,14.64,47.84626,-54.09684
2021-04-25 14:09:01+00:00,227.5398,3.3,14.64,47.84626,-54.09684
2021-04-25 14:19:01+00:00,220.9881,3.29,14.56,47.84626,-54.09684
2021-04-25 14:29:01+00:00,214.3214,3.28,14.56,47.84626,-54.09684
2021-04-25 14:39:01+00:00,207.7614,3.27,14.56,47.84626,-54.09684
2021-04-25 14:49:01+00:00,201.1331,3.24,14.56,47.84626,-54.09684
2021-04-25 14:59:01+00:00,193.3682,3.23,14.56,47.84626,-54.09684
2021-04-25 15:09:01+00:00,188.3114,3.24,14.56,47.84626,-54.09684
2021-04-25 15:19:01+00:00,186.3931,3.23,14.48,47.84626,-54.09684
2021-04-25 15:29:01+00:00,182.4415,3.21,14.48,47.84626,-54.09684
2021-04-25 15:39:01+00:00,180.8698,3.27,14.48,47.84626,-54.09684
2021-04-25 15:49:01+00:00,181.0581,3.3,14.48,47.84626,-54.09684
2021-04-25 15:59:01+00:00,179.5348,3.48,14.48,47.84626,-54.09684
2021-04-25 16:09:01+00:00,178.5164,3.6,14.48,47.84626,-54.09684
2021-04-25 16:19:00+00:00,178.7498,3.69,14.4,47.84626,-54.09684
2021-04-25 16:29:00+00:00,178.9131,3.7,14.4,47.84626,-54.09684
2021-04-25 16:39:00+00:00,180.1265,3.72,14.4,47.84626,-54.09684
2021-04-25 16:49:00+00:00,180.1731,3.7,14.4,47.84626,-54.09684
2021-04-25 16:59:00+00:00,179.3398,3.8,14.4,47.84626,-54.09684
2021-04-25 17:09:00+00:00,183.0048,3.89,14.4,47.84626,-54.09684
2021-04-25 17:19:01+00:00,188.6448,3.9,14.32,47.84626,-54.09684
2021-04-25 17:29:01+00:00,193.2081,3.9,14.32,47.84626,-54.09684
2021-04-25 17:39:01+00:00,199.5981,3.9,14.32,47.84626,-54.09684
2021-04-25 17:49:01+00:00,207.0698,3.87,14.32,47.84626,-54.09684
2021-04-25 17:59:01+00:00,212.3081,3.8,14.32,47.84626,-54.09684
2021-04-25 18:09:01+00:00,215.8964,3.8,14.32,47.84626,-54.09684
2021-04-25 18:19:01+00:00,220.5731,3.7,14.08,47.84626,-54.09684
2021-04-25 18:29:01+00:00,224.1431,3.7,14.08,47.84626,-54.09684
2021-04-25 18:39:01+00:00,230.1014,3.7,14.08,47.84626,-54.09684
2021-04-25 18:49:01+00:00,234.1848,3.7,14.08,47.84626,-54.09684
2021-04-25 18:59:01+00:00,238.8682,3.7,14.08,47.84626,-54.09684
2021-04-25 19:09:01+00:00,246.9498,3.7,14.08,47.84626,-54.09684
2021-04-25 19:19:00+00:00,253.4864,3.7,13.92,47.84626,-54.09684
2021-04-25 19:29:00+00:00,257.3664,3.7,13.92,47.84626,-54.09684
2021-04-25 19:39:00+00:00,265.6414,3.7,13.92,47.84626,-54.09684
2021-04-25 19:49:00+00:00,274.7797,3.7,13.92,47.84626,-54.09684
2021-04-25 19:59:00+00:00,277.4481,3.69,13.92,47.84626,-54.09684
2021-04-25 20:09:00+00:00,282.5514,3.5,13.92,47.84626,-54.09684
2021-04-25 20:19:01+00:00,293.4431,3.5,13.84,47.84626,-54.09684
2021-04-25 20:29:01+00:00,303.5547,3.5,13.84,47.84626,-54.09684
2021-04-25 20:39:01+00:00,311.2547,3.42,13.84,47.84626,-54.09684
2021-04-25 20:49:01+00:00,319.5413,3.5,13.84,47.84626,-54.09684
2021-04-25 20:59:01+00:00,330.8414,3.59,13.84,47.84626,-54.09684
2021-04-25 21:09:01+00:00,338.3879,3.62,13.84,47.84626,-54.09684
2021-04-25 21:19:01+00:00,341.5813,3.7,13.76,47.84626,-54.09684
2021-04-25 21:29:01+00:00,345.0347,3.7,13.76,47.84626,-54.09684
2021-04-25 21:39:01+00:00,351.8362,3.7,13.76,47.84626,-54.09684
2021-04-25 21:49:01+00:00,358.5745,3.7,13.76,47.84626,-54.09684
2021-04-25 21:59:01+00:00,358.2663,3.7,13.76,47.84626,-54.09684
2021-04-25 22:09:01+00:00,361.6896,3.7,13.76,47.84626,-54.09684
2021-04-25 22:19:00+00:00,363.9163,3.77,13.53,47.84626,-54.09684
2021-04-25 22:29:00+00:00,365.2263,3.92,13.53,47.84626,-54.09684
2021-04-25 22:39:00+00:00,361.23800000000006,4.01,13.53,47.84626,-54.09684
2021-04-25 22:49:00+00:00,357.9613,4.06,13.53,47.84626,-54.09684
2021-04-25 22:59:00+00:00,360.1797,4.1,13.53,47.84626,-54.09684
2021-04-25 23:09:00+00:00,361.2629,4.1,13.53,47.84626,-54.09684
2021-04-25 23:19:01+00:00,357.3629,4.1,13.13,47.84626,-54.09684
2021-04-25 23:29:01+00:00,354.208,4.1,13.13,47.84626,-54.09684
2021-04-25 23:39:01+00:00,356.2062,4.1,13.13,47.84626,-54.09684
2021-04-25 23:49:01+00:00,350.6812,4.1,13.13,47.84626,-54.09684
2021-04-25 23:59:01+00:00,343.278,4.09,13.13,47.84626,-54.09684
